FW9752 Weather Reports


time (UTC)temp
F
wind
direction
speed
knots
gust
knots
rain 1hr
in
rain 24hr
in
rain mn
in
humidity
%
barometer
mb
20260505011544 75 266 2.6 7.0 0.00 0.00 0.00 60 1003.0
20260505010053 76 266 3.5 8.7 0.00 0.00 0.00 59 1003.1
20260505004549 76 268 5.2 8.7 0.00 0.00 0.00 58 1002.9
20260505003054 77 266 7.8 13.9 0.00 0.00 0.00 56 1002.7
20260505001542 78 266 6.1 12.2 0.00 0.00 0.00 56 1002.8
20260505000039 79 266 6.1 13.9 0.00 0.00 0.00 55 1002.8
20260504234535 79 266 7.8 13.9 0.00 0.00 0.00 53 1002.8
20260504233045 80 290 9.6 16.5 0.00 0.00 0.00 53 1002.6
20260504231542 80 281 7.8 20.9 0.00 0.00 0.00 53 1002.7
20260504230041 80 285 9.6 15.6 0.00 0.00 0.00 52 1002.7
20260504224537 80 266 9.6 19.1 0.00 0.00 0.00 51 1002.5
20260504223058 81 278 12.2 22.6 0.00 0.00 0.00 50 1002.8
20260504221542 81 276 10.4 20.0 0.00 0.00 0.00 50 1002.7
20260504220043 81 278 13.0 21.7 0.00 0.00 0.00 50 1002.5
20260504214541 81 266 13.0 22.6 0.00 0.00 0.00 49 1002.6
20260504213040 81 266 10.4 22.6 0.00 0.00 0.00 50 1002.8
20260504211624 80 277 11.3 18.2 0.00 0.00 0.00 51 1002.8
20260504210046 80 271 12.2 21.7 0.00 0.00 0.00 52 1003.0
20260504204543 79 266 11.3 18.2 0.00 0.00 0.00 53 1003.1
20260504203043 79 266 9.6 22.6 0.00 0.00 0.00 53 1003.4
20260504201540 79 272 13.0 25.2 0.00 0.00 0.00 52 1003.5
20260504200036 78 266 12.2 24.3 0.00 0.00 0.00 52 1003.5
20260504194539 79 266 11.3 22.6 0.00 0.00 0.00 53 1003.8
20260504193044 79 266 11.3 20.0 0.00 0.00 0.00 52 1003.7
20260504191601 79 266 11.3 22.6 0.00 0.00 0.00 52 1003.8
20260504190046 78 279 11.3 18.2 0.00 0.00 0.00 53 1004.0
20260504184547 77 268 12.2 24.3 0.00 0.00 0.00 52 1004.3
20260504183042 77 274 13.0 21.7 0.00 0.00 0.00 53 1004.4
20260504181542 77 266 12.2 17.4 0.00 0.00 0.00 53 1004.4
20260504180042 77 270 9.6 15.6 0.00 0.00 0.00 54 1004.5
20260504174544 76 268 8.7 15.6 0.00 0.00 0.00 54 1004.5
20260504173037 74 283 7.8 14.8 0.00 0.00 0.00 55 1004.5
20260504171544 73 266 5.2 8.7 0.00 0.00 0.00 56 1004.9
20260504081543 64 266 1.7 3.5 0.00 0.00 0.00 63 1007.8
20260504044536 67 266 4.3 7.0 0.00 0.00 0.00 58 1008.6
20260504043047 68 266 3.5 6.1 0.00 0.00 0.00 57 1008.6
20260504041542 68 266 3.5 6.1 0.00 0.00 0.00 56 1008.8
20260504040047 68 266 3.5 7.8 0.00 0.00 0.00 57 1009.1
20260504034541 69 266 3.5 7.8 0.00 0.00 0.00 56 1009.2
20260504033036 69 271 5.2 8.7 0.00 0.00 0.00 55 1009.2
20260504031554 70 277 4.3 10.4 0.00 0.00 0.00 55 1009.4
20260504030044 70 266 6.1 9.6 0.00 0.00 0.00 55 1009.3
20260504024540 70 266 5.2 11.3 0.00 0.00 0.00 55 1009.3
20260504023043 70 266 5.2 12.2 0.00 0.00 0.00 54 1009.1
20260504021540 71 266 5.2 9.6 0.00 0.00 0.00 53 1009.1
20260504020039 71 266 3.5 8.7 0.00 0.00 0.00 53 1009.2
20260504014546 72 266 5.2 9.6 0.00 0.00 0.00 52 1009.3
20260504013046 72 266 4.3 8.7 0.00 0.00 0.00 51 1009.1